Location: Bidart
(43.4376°N, 1.5913°W)
Time: 20:05:00
(UTC+00:00)

CZ-4 R/B - Pass Details

Date: 19 May 2025
Orbit: 499 x 550 km, 97.6° (Epoch: 18 June)

Event Time Altitude Azimuth Distance (km) Brightness Sun altitude
Rises 20:22:11 0° 190° (S) 2,713 4.6 -8.9°
Reaches altitude 10° 20:24:29 10° 201° (SSW) 1,824 3.8 -9.2°
Maximum altitude 20:28:00 30° 264° (W) 994 3.1 -9.7°
Drops below altitude 10° 20:31:32 10° 327° (NNW) 1,828 5.4 -10.2°
Sets 20:33:51 0° 338° (NNW) 2,720 6.1 -10.5°
